Regional Weather Roundup
Issued by NWS Sterling, VA

Home | Current Version | Previous Version | Graphics & Text | Print | Product List | Glossary On
Versions: 1 2 3 4 5 6 7 8 9 10 11 12 13 14 15 16 17 18 19 20 21 22 23 24 25 26 27 28
000
ASUS41 KLWX 271510
RWRLWX

REGIONAL WEATHER ROUNDUP
NATIONAL WEATHER SERVICE BALTIMORE MD/WASHINGTON DC
1100 AM EDT WED JUL 27 2016

Note: "FAIR" indicates few or no clouds below 12,000 feet
with no significant weather and/or obstructions to visibility.
 TC=TEMPERATURE CELSIUS

 * =Non NWS site. Station does not report precipitation (e.g. rain,
    snow, etc.), thunder, or fog.

DCZ001-MDZ009-015-VAZ040>042-051-053>054-271600-
WASHINGTON METRO

CITY           SKY/WX    TMP DP  RH WIND       PRES   REMARKS
WASHINGTON NAT PTSUNNY   90  69  50 NW6       29.96S HX  94
DULLES         PTSUNNY   86  64  47 N8        29.99R
ANDREWS AFB    MOSUNNY   88  68  52 VRB3      29.96S HX  91
FT BELVOIR     FAIR      88  67  48 NW7       29.96S HX  91
QUANTICO       PTSUNNY   89  71  55 VRB6      29.97S HX  95
COLLEGE PARK*  PTSUNNY   86  70  58 N5        29.96S HX  90
LEESBURG*      CLOUDY    84  70  61 NW7       30.00S
MANASSAS*      PTSUNNY   88  66  48 N3        29.98R HX  90
GAITHERSBURG*  CLOUDY    81  68  65 NW5       30.03R

$$

MDZ006>007-011-014-271600-
BALTIMORE METRO

CITY           SKY/WX    TMP DP  RH WIND       PRES   REMARKS
BWI AIRPORT    CLOUDY    84  70  62 NW5       29.96R
MD SCIENCE CTR   N/A     87  70  56 MISG      29.95S HX  92
MARTIN STATE   PTSUNNY   84  75  74 CALM      29.96S HX  92
ANNAPOLIS      CLOUDY    85  73  67 NW5       29.95R HX  91
FORT MEADE*    CLOUDY    81  73  78 CALM      29.98S

$$

MDZ012-015-019>023-271600-
MARYLAND EASTERN SHORE

CITY           SKY/WX    TMP DP  RH WIND       PRES   REMARKS
OCEAN CITY     MOSUNNY   84  79  85 VRB5      29.94R HX  96
SALISBURY      MOSUNNY   86  77  74 CALM      29.94R HX  97
BAY BRIDGE AP* CLOUDY    82  75  78 NW7       29.95S
CAMBRIDGE*     SUNNY     86  73  66 W3        29.94S HX  93
EASTON*        PTSUNNY   90  79  70 CALM      29.98S HX 105

$$

MDZ017>025-271600-
SOUTHERN MARYLAND

CITY           SKY/WX    TMP DP  RH WIND       PRES   REMARKS
PATUXENT RIVER PTSUNNY   87  74  64 N6        29.94F HX  95
ST INIGOES     MOSUNNY   86  75  69 CALM      29.94S HX  95
LEONARDTOWN*   NOT AVBL

$$

MDZ003>005-271600-
NORTH CENTRAL MARYLAND

CITY           SKY/WX    TMP DP  RH WIND       PRES   REMARKS
FREDERICK*     CLOUDY    81  68  65 N5        30.01S
HAGERSTOWN APT CLOUDY    84  63  49 VRB3      30.00F

$$

MDZ501>502-271600-
WESTERN MARYLAND

CITY           SKY/WX    TMP DP  RH WIND       PRES   REMARKS
OAKLAND*       NOT AVBL
CUMBERLAND*    MOSUNNY   84  63  48 CALM      30.05S

$$

VAZ025>031-271600-
SHENANDOAH VALLEY

CITY           SKY/WX    TMP DP  RH WIND       PRES   REMARKS
WINCHESTER*    FAIR      82  64  54 NW5       30.01F
FRONT ROYAL*   PTSUNNY   81  66  61 N3        30.01S
LURAY*         FAIR      82  73  74 CALM      30.02S
NEW MARKET*    FAIR     N/A N/A N/A CALM      30.01S
STAUNTON*      FAIR      80  73  78 CALM      30.05F
WAYNESBORO*    FAIR      82  69  65 E3        30.05S

$$

WVZ021-048>050-054>055-271600-
EASTERN WEST VIRGINIA PANHANDLE

CITY           SKY/WX    TMP DP  RH WIND       PRES   REMARKS
MARTINSBURG    FAIR      84  60  44 CALM      30.00S
PETERSBURG*    CLOUDY    83  72  67 CALM      30.02S

$$

VAZ036>039-050-271600-
CENTRAL FOOTHILLS

CITY           SKY/WX    TMP DP  RH WIND       PRES   REMARKS
CHARLOTTESVILL FAIR      90  71  53 SE6       29.99S HX  96
CULPEPER*      FAIR      86  71  59 N5        29.99S HX  91
ORANGE*          N/A     86  68  54 CALM      30.01R
GORDONSVILLE*  FAIR      87  69  54 NE6       29.99R HX  91
WARRENTON*     FAIR      88  63  43 CALM      29.98S

$$

VAZ055>057-271600-
NORTH AND CENTRAL PIEDMONT

CITY           SKY/WX    TMP DP  RH WIND       PRES   REMARKS
FREDERICKSBRG* FAIR      89  69  51 CALM      29.95F HX  94
STAFFORD*      FAIR      87  66  49 N6        30.01R HX  90

$$

NCZ024-NYZ072-PAZ021-071-VAZ022-071-271600-
OTHER REGIONAL OBSERVATIONS

CITY           SKY/WX    TMP DP  RH WIND       PRES   REMARKS
NEW YORK CITY  SUNNY     84  60  44 W5        29.98S
PHILADELPHIA   MOSUNNY   87  64  46 NE6       29.95S
PITTSBURGH     MOSUNNY   79  60  52 CALM      30.04F
ROANOKE        FAIR      87  72  60 VRB5      30.05S HX  93
RICHMOND       FAIR      84  75  74 VRB3      29.96F HX  92
RALEIGH        CLOUDY    86  78  77 VRB3      29.99F HX  98

$$

ANZ530>537-271600-
MARINE OBSERVATIONS

STATION/POSITION TIME  TEMP    WIND        PRES
                       AIR SEA DIR/SP/G
                 (UTC) (F)     (DEG/KT/KT) (MB)
THOMAS PT LIGHT  1500   83 83  360/  3/  3 1015.7R
BALT KEY BRIDGE  1448   82     240/  3/  3 1014.2R
COVE POINT       1448   84     360/  3/  5 1014.6F
LEWISETTA        1448   85 87   20/  1/  3 1013.8S
SOLOMONS ISLAND  1442   86 85  260/  2/  3   N/A
PINEY POINT      1448          310/  2/  3   N/A

$$





USA.gov is the U.S. government's official web portal to all federal, state and local government web resources and services.